Погода в Куруше

Россия / Республика Дагестан     41°17′01″N   47°50′01″E
темп.,
°C
ветер,
м/с
пор.,
м/с
влажн.,
%
обл.,
%
осадки,
мм/ч
давл.,
гПа
погр.,
м
25 июня, сб
сб2500:00+8ююв35775 1.9 1014100
03:00+7ю35775 2.1 101562
06:00+10ю34715 0.0 1014182
09:00+14ююз45572 0.1 10121123
12:00+15ююз56571 0.5 10121341
15:00+14ююз456617 1.8 10121020
18:00+12ю357216 0.8 1013401
21:00+8ю348498 2.2 101551
26 июня, вс
вс2600:00+9ю2382100 1.9 101545
03:00+8юв237651 3.6 101427
06:00+11ю2372100 0.3 101298
09:00+13ююв2659100 0.7 10121088
12:00+13ю465561 1.3 10101045
15:00+15ю365731 3.9 10091176
18:00+13ююв336760 3.9 1010249
21:00+9ююз128299 6.4 101325
27 июня, пн
пн2700:00+9ююв23741 0.8 101325
03:00+9ююв23670 0.8 101320
06:00+12юв11640 0.0 101273
09:00+16юв14520 0.1 10111374
12:00+17ююв14530 0.6 10111485
15:00+17ю13597 1.4 10121364
18:00+13ю127617 1.2 1013474
21:00+9ю12929 1.3 101630
28 июня, вт
вт2800:00+9ю23790 0.3 101532
03:00+9ю33740 0.3 101435
06:00+13ю33670 0.0 1012157
09:00+16ююз34520 0.0 10111086
12:00+18ююз34550 0.3 10111229
15:00+16ююз34601 0.9 10111200
18:00+13ююз357513 1.2 1013616
21:00+10ююз129117 1.4 101520
29 июня, ср
ср2900:00+8св11884 0.4 101613
03:00+7св228622 1.1 101531
06:00+10вюв01819 0.0 1015135
09:00+13юз127947 0.2 1014718
12:00+13юз137866 0.9 1015762
15:00+12юз127858 2.4 1015659
18:00+11юз128578 0.9 1015388
21:00+8юв119451 1.1 101768